Погода в Хусте

Украина / Закарпатская область     48°10′26″N   23°17′51″E
темп.,
°C
ветер,
м/с
пор.,
м/с
влажн.,
%
обл.,
%
осадки,
мм/ч
давл.,
гПа
погр.,
м
5 марта, пт
пт523:00+7ю1285100 0.6 101543
02:00+6юв1284100 1.1 101456
05:00+5ююв2286100 0.3 101289
08:00+5ююв2587100 0.4 1012322
11:00+7ю2474100 0.0 1013582
14:00+6зюз1489100 2.4 1013501
17:00+2с5995100 6.3 1015607
20:00+2с3780100 6.4 1019506
6 марта, сб
сб623:000с5107098 0.0 1022524
02:00−2с497075 0.0 1025415
05:00−2с486566 0.0 1027350
08:00−3с246433 0.0 1029161
11:00+2с35470 0.0 10301454
14:00+3сз344233 0.0 10301806
17:00+2зсз345296 0.1 10301417
20:00−1ссз126956 0.1 103122
7 марта, вс
вс723:00−2всв01690 0.0 103221
02:00−2юв11690 0.0 103121
05:00−2юв12700 0.0 102930
08:00−2ююв23660 0.0 1028193
11:00+2юз35500 0.0 10261008
14:00+4юз56430 0.0 10231493
17:00+4юз36540 0.0 1021983
20:00−1ю22703 0.0 102221
8 марта, пн
пн823:00−1юв22777 0.0 102122
02:00−2вюв11789 0.0 102021
05:00−2юв12763 0.0 101821
08:00−1юв116848 0.0 101894
11:00+3ююз1255100 0.0 1018706
14:00+4з225276 0.0 10171206
17:00+4зсз236198 0.0 1017934
20:000с238086 0.0 102049
9 марта, вт
вт923:00−1с347688 0.0 1022109
02:00−3ссв237171 0.0 102291
05:00−3св23670 0.0 102380
08:00−2св23590 0.0 1023168
11:00+2всв123765 0.0 1023836
14:00+5св013240 0.0 10231373
17:00+4зсз11350 0.0 10221240
20:00−1с22640 0.0 102443